Wind_Speed
16 14 12 11 9 9 9 10 11 12 14 15 17 18 19 20 21 21 22 22 23 23 23 24 24 24 25 25 25 25 26 26 26 28 28 29 29 30 30 31 31 31 32
13 10 9 7 7 8 9 10 12 13 15 17 19 20 21 22 22 22 22 23 23 23 23 23 23 24 24 24 25 25 25 25 26 27 27 29 29 30 30 31 32 32 33
8 7 6 5 7 8 10 12 13 15 17 19 20 21 22 23 23 23 22 22 23 23 23 23 23 23 24 24 24 25 25 26 26 26 27 28 30 30 31 32 33 33 34
4 4 4 5 7 9 11 13 15 17 18 19 21 21 22 22 22 22 22 22 22 22 22 22 22 23 23 24 24 25 26 26 27 27 28 29 29 31 32 33 34 35 35
3 3 5 7 9 11 13 15 17 18 18 19 20 20 20 21 21 21 21 21 20 20 20 21 21 22 23 24 25 26 27 27 28 29 29 30 31 31 33 34 35 35 36
5 5 7 9 10 12 14 15 17 18 19 19 19 20 20 20 21 21 21 21 21 20 20 21 21 22 23 24 26 27 28 29 30 31 32 33 33 34 34 35 36 37 38
7 8 9 11 11 13 14 16 17 18 19 19 19 20 20 20 20 21 21 22 22 22 22 23 23 24 25 26 27 28 30 31 32 33 34 35 36 36 37 37 38 39 39
10 11 12 12 13 14 15 17 17 18 18 19 19 20 21 21 21 22 22 23 23 24 25 26 26 27 27 28 29 30 31 32 34 35 36 37 38 39 39 39 40 41 42
11 12 13 13 14 15 16 17 17 18 19 20 20 21 21 22 23 23 24 24 25 26 26 28 29 30 31 31 32 32 33 34 34 36 37 38 40 40 41 41 42 43 44
12 13 13 14 15 15 16 17 18 19 20 21 22 22 23 24 25 25 26 27 27 28 29 30 31 33 33 34 34 34 34 34 35 35 36 38 40 40 41 42 43 44 45
13 14 15 15 15 16 17 18 19 20 21 22 23 24 25 25 26 27 28 29 30 31 31 33 34 35 36 36 36 36 35 35 36 36 36 37 39 40 41 42 43 44 45
14 14 15 15 16 17 18 19 20 21 22 24 25 26 27 28 29 29 30 31 32 33 35 36 37 38 38 38 38 38 37 37 37 37 37 37 38 39 40 41 43 44 45
15 15 15 16 17 18 19 20 21 23 24 26 27 28 29 30 30 31 32 33 35 36 38 39 40 40 40 40 40 39 39 38 37 37 37 37 38 39 40 40 42 43 44
15 15 16 17 18 19 20 21 23 24 26 28 29 30 31 32 32 33 35 36 37 39 40 42 42 42 43 42 41 40 39 38 37 37 36 36 37 37 39 40 41 42 44
16 16 17 18 19 20 22 23 25 26 28 30 31 31 32 33 34 35 37 38 40 41 43 44 44 44 44 43 42 41 39 38 37 36 36 36 36 37 38 39 40 42 43
17 17 18 19 20 22 24 25 27 28 30 31 32 32 33 34 35 37 39 41 42 44 45 46 46 46 45 44 42 40 38 37 36 36 35 35 35 36 37 38 40 41 43
18 19 20 21 23 24 26 27 28 30 31 32 33 33 34 35 37 40 42 43 44 46 47 47 47 46 45 43 41 39 37 36 35 35 35 35 35 36 36 37 39 41 42
19 20 22 23 25 26 28 29 30 31 32 33 33 34 35 37 40 43 45 46 47 48 49 48 47 45 43 41 39 37 35 34 34 34 34 35 35 36 36 37 38 40 41
21 22 24 25 27 28 30 31 32 32 33 34 34 35 37 40 43 45 47 48 49 50 50 48 46 43 41 40 38 36 34 33 33 33 34 34 33 34 35 36 36 38 40
24 25 26 28 29 31 32 33 33 34 34 35 36 38 40 42 45 48 49 50 50 50 49 47 44 42 40 38 37 35 33 33 33 33 33 32 31 32 33 34 36 37 39
27 27 29 30 32 33 34 35 35 35 36 37 38 41 43 45 48 50 51 51 51 50 48 45 42 40 38 36 35 33 32 32 32 31 31 30 30 30 32 33 34 35 38
30 31 32 33 34 35 36 37 37 37 38 39 42 44 46 49 51 52 52 53 53 50 47 43 40 38 37 35 33 32 31 31 31 30 29 29 29 29 30 30 32 33 35
33 34 35 36 37 38 39 40 40 40 41 43 45 47 49 50 53 54 54 54 53 49 45 42 39 37 35 34 33 32 31 31 30 29 28 28 28 28 28 28 29 30 31
35 36 37 38 40 41 43 43 44 43 44 46 48 49 51 52 55 55 55 53 51 47 44 41 38 36 34 34 32 31 30 30 29 28 27 27 26 26 25 26 26 27 28
36 37 39 41 42 45 47 48 47 48 49 49 50 52 54 55 56 56 55 52 49 45 42 40 37 35 33 32 31 31 30 29 28 27 26 25 24 24 24 24 24 25 26
38 39 41 43 45 49 52 52 52 52 52 52 53 54 55 56 57 55 52 49 46 43 40 39 37 34 32 31 30 30 29 28 28 26 25 24 24 24 23 22 23 23 24
Wind_Direction
271 273 276 279 287 296 299 302 306 308 307 307 309 309 309 308 307 306 304 302 300 298 296 294 292 289 287 285 283 280 277 273 270 267 265 263 261 259 257 254 252 250 247
268 268 274 280 293 302 306 311 314 314 314 315 316 316 315 315 314 313 310 308 305 303 301 298 295 292 290 288 285 282 280 277 272 269 265 262 260 258 256 254 252 249 247
267 273 281 296 307 315 317 319 319 319 319 319 318 318 318 317 316 315 313 311 308 306 304 302 299 297 294 291 287 284 281 279 275 271 268 264 261 258 255 254 252 248 247
283 287 321 329 326 325 324 323 322 322 321 320 319 319 319 318 317 316 314 313 311 309 307 305 303 301 299 296 292 288 284 281 278 274 270 266 262 258 255 253 252 249 246
20 352 345 335 329 327 325 325 324 323 321 321 321 320 320 319 319 318 317 316 315 313 312 310 307 305 303 300 296 292 288 284 280 277 273 269 265 261 257 254 252 250 247
4 351 340 333 329 328 327 325 323 322 321 320 321 320 320 320 319 319 318 318 316 315 314 313 311 309 306 303 300 296 291 287 283 279 275 271 266 262 258 255 252 250 248
349 344 336 330 328 325 323 322 322 323 322 321 321 321 321 320 320 320 319 318 317 315 314 313 312 310 308 306 303 299 295 290 285 280 276 272 268 264 260 255 252 250 248
336 332 328 324 322 321 321 321 321 322 322 321 321 320 320 320 319 319 318 317 316 315 314 314 313 311 310 308 305 301 296 292 287 282 278 273 269 265 261 256 251 248 247
324 320 318 316 316 317 317 318 319 319 320 320 319 319 319 318 318 318 317 317 316 315 315 314 313 312 311 309 306 302 298 294 289 284 279 274 270 266 262 257 253 249 246
313 310 308 308 309 311 313 314 316 318 319 320 321 321 320 319 319 318 318 317 317 316 315 314 313 312 311 309 306 303 299 295 290 285 280 275 270 266 262 258 254 250 246
307 306 304 304 306 308 310 312 315 319 321 323 324 324 323 322 321 320 319 318 317 317 315 314 313 312 311 309 306 303 299 295 291 286 281 276 271 267 262 258 254 250 247
302 302 300 300 303 306 309 313 317 320 323 325 325 325 324 323 322 321 320 319 318 317 316 315 313 312 310 308 306 303 299 295 291 287 282 276 271 267 263 258 254 251 247
297 297 299 300 302 306 310 315 318 321 324 326 326 325 324 324 324 323 321 320 319 318 317 315 314 312 310 307 305 303 299 295 291 287 282 277 272 267 263 259 255 251 248
296 298 300 301 303 307 311 315 319 322 324 326 326 325 325 324 323 323 322 321 320 319 317 315 313 311 309 307 305 303 299 295 291 288 283 278 272 268 263 259 255 251 248
298 300 302 303 306 310 314 317 320 322 324 326 326 325 324 324 324 323 323 322 321 319 317 315 313 311 309 307 305 303 299 296 292 289 284 279 273 268 264 260 255 252 248
300 301 304 306 308 312 315 317 320 321 323 324 325 325 324 324 324 324 323 322 321 319 318 316 313 311 308 307 305 303 299 296 293 290 286 281 276 270 266 261 257 252 248
301 303 305 306 309 312 314 316 318 320 321 322 323 323 323 323 323 323 323 322 321 320 319 317 315 311 308 306 305 302 299 296 294 291 288 284 279 274 268 263 258 253 249
302 303 305 306 308 311 313 315 317 318 319 320 321 322 322 322 323 323 323 322 322 321 320 318 316 312 309 307 305 303 300 297 294 293 290 286 281 276 270 265 260 254 250
302 303 305 306 308 310 312 314 315 317 318 318 319 320 322 323 324 324 324 323 323 322 320 319 316 313 309 307 306 304 301 297 295 294 292 287 283 278 272 267 262 256 251
303 304 305 307 308 310 311 313 315 315 315 316 317 319 321 324 326 325 325 325 324 323 322 319 316 313 310 309 306 304 302 299 297 295 292 288 283 279 275 269 263 258 253
303 304 306 306 308 309 311 312 314 314 314 315 316 318 321 323 325 326 326 325 325 324 323 320 317 314 311 310 307 305 303 301 299 296 293 288 284 282 277 272 266 260 255
305 306 307 308 308 310 311 312 313 313 314 315 316 318 319 321 323 324 325 325 325 325 323 320 317 314 312 311 309 306 304 303 301 297 293 289 286 284 280 275 268 262 256
305 307 308 308 308 309 310 310 310 311 312 315 316 316 317 319 321 323 323 324 325 325 323 320 317 315 314 312 311 308 306 305 302 299 294 292 289 286 282 276 271 263 257
304 305 305 306 306 307 308 307 307 308 310 312 313 314 315 317 319 321 322 323 324 324 322 320 317 316 315 314 312 310 308 307 304 301 298 293 290 288 281 277 272 265 259
301 302 303 303 303 305 304 303 304 307 309 310 310 313 315 316 317 319 320 321 322 322 321 319 317 316 315 314 312 311 309 307 305 303 300 296 292 289 283 278 273 267 261
299 300 300 301 302 303 303 303 302 305 308 309 309 311 313 314 315 316 318 319 320 320 319 318 316 315 315 314 312 311 310 308 306 303 302 299 294 289 282 277 274 269 262
Height
5869 5869 5869 5870 5870 5870 5869 5869 5867 5866 5864 5863 5860 5858 5856 5853 5851 5848 5846 5843 5841 5838 5836 5834 5833 5831 5830 5828 5827 5826 5826 5825 5825 5825 5826 5826 5827 5827 5828 5829 5831 5833 5834
5865 5865 5866 5867 5867 5867 5867 5865 5864 5862 5861 5858 5856 5853 5850 5848 5845 5842 5840 5837 5835 5832 5830 5828 5826 5824 5823 5822 5820 5819 5818 5818 5818 5818 5818 5819 5820 5820 5821 5822 5823 5824 5826
5862 5862 5863 5864 5864 5864 5863 5862 5860 5859 5856 5854 5851 5849 5846 5843 5840 5837 5834 5832 5829 5826 5824 5822 5820 5818 5816 5815 5814 5813 5811 5811 5811 5810 5810 5811 5811 5812 5813 5813 5814 5816 5818
5860 5861 5862 5862 5862 5861 5860 5859 5857 5855 5852 5850 5847 5844 5841 5838 5835 5832 5830 5827 5824 5821 5819 5816 5814 5812 5810 5808 5807 5806 5804 5804 5803 5803 5803 5803 5803 5803 5804 5805 5806 5807 5809
5860 5860 5861 5860 5860 5859 5857 5856 5853 5851 5849 5846 5844 5841 5838 5834 5831 5828 5825 5823 5820 5817 5814 5812 5809 5807 5804 5802 5800 5799 5797 5796 5795 5794 5794 5794 5794 5794 5795 5796 5797 5799 5800
5860 5859 5859 5858 5857 5856 5854 5853 5851 5848 5846 5843 5840 5837 5834 5831 5828 5825 5821 5818 5815 5812 5810 5807 5804 5801 5799 5796 5794 5791 5790 5788 5786 5785 5785 5785 5785 5785 5786 5787 5788 5789 5791
5858 5858 5857 5856 5855 5854 5852 5850 5848 5846 5843 5840 5837 5834 5831 5827 5824 5821 5817 5813 5810 5807 5804 5801 5798 5795 5793 5790 5787 5784 5781 5779 5777 5776 5775 5774 5774 5775 5776 5777 5778 5779 5781
5857 5856 5855 5854 5853 5852 5850 5848 5846 5843 5840 5837 5834 5831 5827 5824 5820 5816 5812 5809 5805 5801 5798 5795 5792 5788 5785 5782 5779 5776 5773 5770 5768 5766 5764 5763 5763 5763 5764 5765 5767 5769 5770
5855 5854 5853 5852 5851 5850 5848 5845 5843 5840 5837 5834 5831 5827 5823 5819 5815 5811 5807 5803 5799 5796 5792 5788 5784 5781 5777 5773 5770 5766 5763 5760 5757 5755 5753 5752 5751 5751 5752 5753 5755 5757 5759
5854 5853 5852 5850 5849 5847 5845 5843 5840 5837 5834 5830 5826 5822 5818 5814 5810 5806 5802 5797 5793 5789 5785 5781 5777 5772 5768 5764 5760 5756 5753 5750 5747 5744 5742 5740 5739 5739 5739 5740 5742 5744 5747
5852 5851 5849 5848 5846 5844 5842 5840 5837 5833 5829 5825 5821 5817 5813 5808 5804 5800 5795 5791 5786 5782 5777 5773 5768 5763 5759 5754 5750 5746 5742 5739 5735 5732 5730 5728 5727 5726 5726 5727 5729 5731 5734
5849 5848 5846 5845 5843 5841 5838 5835 5832 5828 5824 5820 5816 5811 5807 5802 5797 5793 5788 5784 5779 5774 5769 5764 5759 5754 5749 5744 5739 5735 5731 5727 5723 5720 5718 5716 5714 5713 5713 5714 5715 5718 5720
5846 5845 5843 5841 5839 5837 5834 5830 5827 5823 5819 5814 5810 5805 5800 5796 5791 5786 5781 5776 5771 5766 5760 5755 5749 5744 5738 5733 5728 5723 5719 5714 5711 5708 5705 5703 5701 5701 5700 5701 5702 5705 5707
5843 5841 5839 5837 5835 5832 5829 5825 5821 5817 5813 5808 5804 5799 5794 5789 5784 5779 5774 5769 5763 5757 5751 5745 5739 5733 5727 5721 5716 5711 5706 5702 5698 5695 5692 5690 5689 5688 5688 5688 5690 5692 5694
5838 5836 5834 5832 5829 5826 5823 5819 5815 5811 5807 5802 5797 5792 5787 5782 5777 5772 5766 5761 5754 5748 5742 5735 5729 5722 5716 5710 5704 5699 5694 5689 5685 5682 5680 5678 5676 5675 5675 5676 5677 5679 5682
5834 5831 5829 5826 5824 5820 5817 5813 5809 5805 5800 5796 5791 5786 5780 5775 5770 5764 5758 5752 5745 5739 5732 5725 5718 5711 5704 5698 5692 5686 5682 5677 5673 5670 5667 5665 5664 5663 5662 5663 5664 5666 5668
5828 5826 5823 5821 5818 5814 5811 5807 5802 5798 5793 5789 5784 5779 5773 5768 5762 5756 5750 5743 5736 5728 5721 5713 5706 5699 5692 5686 5680 5674 5670 5665 5661 5658 5655 5653 5651 5650 5649 5650 5651 5652 5655
5823 5820 5817 5815 5811 5808 5804 5800 5796 5791 5786 5781 5776 5771 5766 5760 5754 5747 5740 5733 5725 5718 5710 5702 5694 5687 5680 5674 5668 5663 5659 5654 5650 5647 5644 5641 5638 5637 5636 5636 5637 5639 5641
5817 5814 5811 5808 5805 5801 5797 5793 5788 5784 5779 5774 5769 5763 5758 5751 5745 5738 5730 5723 5715 5707 5698 5690 5683 5676 5669 5663 5658 5652 5648 5644 5640 5636 5633 5629 5627 5625 5623 5623 5624 5626 5627
5811 5808 5805 5801 5798 5794 5789 5785 5781 5776 5771 5766 5760 5755 5749 5742 5735 5728 5720 5712 5704 5696 5687 5679 5671 5665 5658 5652 5647 5642 5638 5633 5629 5625 5621 5618 5616 5613 5611 5611 5611 5612 5614
5804 5801 5798 5794 5790 5786 5782 5777 5772 5768 5763 5757 5752 5746 5739 5733 5726 5718 5710 5702 5694 5685 5677 5669 5661 5654 5648 5643 5637 5632 5628 5623 5619 5614 5611 5607 5605 5602 5600 5599 5599 5599 5600
5796 5793 5789 5785 5781 5777 5773 5768 5764 5759 5754 5748 5742 5736 5729 5723 5715 5708 5699 5691 5683 5675 5666 5659 5651 5645 5639 5633 5628 5623 5618 5613 5609 5604 5601 5597 5594 5592 5589 5587 5587 5587 5587
5787 5784 5780 5776 5772 5768 5764 5759 5754 5749 5743 5738 5732 5725 5719 5712 5704 5697 5689 5680 5672 5664 5657 5649 5642 5635 5629 5624 5619 5613 5609 5604 5599 5595 5591 5588 5584 5581 5579 5577 5575 5575 5575
5778 5775 5771 5767 5763 5758 5753 5749 5743 5738 5733 5727 5721 5715 5708 5701 5693 5685 5677 5670 5662 5654 5647 5640 5633 5627 5621 5615 5610 5604 5599 5594 5590 5586 5582 5578 5575 5572 5569 5567 5565 5564 5565
5769 5765 5761 5757 5752 5748 5743 5738 5732 5727 5722 5716 5710 5703 5697 5690 5682 5675 5667 5659 5652 5644 5638 5631 5625 5619 5613 5607 5601 5596 5591 5586 5582 5577 5573 5570 5566 5563 5561 5558 5556 5555 5555
5759 5755 5751 5747 5742 5737 5732 5726 5721 5716 5710 5705 5699 5692 5685 5678 5671 5664 5656 5648 5642 5635 5629 5622 5616 5610 5605 5599 5593 5588 5583 5578 5573 5569 5565 5561 5558 5555 5553 5550 5549 5547 5547